Augusta, GA

2:07 AM EDT on April 23, 2017 (GMT -0400)
Daniel

Weather History for KDNL - May, 2013

Change the Weather History Date:

Thursday, May 9, 2013

  Actual Average Record
Temperature  
Mean Temperature 73 °F -  
Max Temperature 84 °F 79 °F 92 °F (2014)
Min Temperature 61 °F 60 °F 55 °F (2006)
Cooling Degree Days 8    
Month to date cooling degree days 10  
Year to date cooling degree days 104  
Growing Degree Days 22 (Base 50)    
Moisture  
Dew Point 54 °F    
Average Humidity 54    
Maximum Humidity 73    
Minimum Humidity 34    
Precipitation  
Precipitation 0.00 in - - ()
Month to date precipitation 1.41  
Year to date precipitation 18.34  
Sea Level Pressure  
Sea Level Pressure 30.06 in    
Wind  
Wind Speed 3 mph (WNW)    
Max Wind Speed 9 mph    
Max Gust Speed 15 mph    
Visibility 10 miles    
Events      
Averages and records for this station are not official NWS values.
T = Trace of Precipitation, MM = Missing Value Source: NWS Daily Summary

Daily Weather History Graph

Daily Weather History Graph

Search for Another Location

Airport or City:

Trip Planner

Search our weather history database for the weather conditions in past years. The results will help you decide how hot, cold, wet, or windy it might be!

Date:

Astronomy

May. 09, 2013 Rise Set
Actual Time 6:32 AM EDT 8:17 PM EDT
Civil Twilight 6:05 AM EDT 8:44 PM EDT
Nautical Twilight 5:32 AM EDT 9:17 PM EDT
Astronomical Twilight 4:58 AM EDT 9:51 PM EDT
Moon 6:14 AM EDT (5/9) 8:11 PM EDT (5/9)
Length of Visible Light 14h 39m
Length of Day
13h 45m
Waning Crescent, 0% of the Moon is Illuminated
May 9
Waning Crescent
May 9
New
May 18
First Quarter
May 25
Full
May 31
Last Quarter

Hourly Weather History & Observations

Time (EDT) Temp. Heat Index Dew Point Humidity Pressure Visibility Wind Dir Wind Speed Gust Speed Precip Events Conditions
12:53 AM 66.9 °F - 53.1 °F 61% 30.04 in 10.0 mi West 3.5 mph - N/A   Clear
1:53 AM 64.9 °F - 53.1 °F 65% 30.04 in 10.0 mi Variable 3.5 mph - N/A   Clear
2:53 AM 64.0 °F - 54.0 °F 70% 30.02 in 10.0 mi Calm Calm - N/A   Clear
3:53 AM 64.0 °F - 54.0 °F 70% 30.01 in 10.0 mi Calm Calm - N/A   Clear
4:53 AM 62.1 °F - 54.0 °F 75% 30.01 in 10.0 mi Calm Calm - N/A   Clear
5:53 AM 62.1 °F - 54.0 °F 75% 30.04 in 10.0 mi WNW 3.5 mph - N/A   Clear
6:53 AM 63.0 °F - 54.0 °F 72% 30.06 in 10.0 mi WNW 5.8 mph - N/A   Clear
7:53 AM 64.0 °F - 55.0 °F 73% 30.08 in 10.0 mi WNW 5.8 mph - N/A   Clear
8:53 AM 68.0 °F - 55.9 °F 65% 30.09 in 10.0 mi NW 6.9 mph - N/A   Clear
9:53 AM 72.0 °F - 55.9 °F 57% 30.09 in 10.0 mi NW 4.6 mph - N/A   Clear
10:53 AM 75.0 °F - 55.9 °F 51% 30.10 in 10.0 mi WNW 6.9 mph - N/A   Clear
11:53 AM 78.1 °F - 53.1 °F 42% 30.10 in 10.0 mi WNW 6.9 mph - N/A   Clear
1:53 PM 82.0 °F 81.3 °F 54.0 °F 38% 30.10 in 10.0 mi Variable 6.9 mph - N/A   Partly Cloudy
2:53 PM 82.0 °F - 52.0 °F 35% 30.07 in 10.0 mi WSW 5.8 mph - N/A   Scattered Clouds
3:53 PM 82.9 °F 81.8 °F 53.1 °F 36% 30.06 in 10.0 mi WSW 8.1 mph - N/A   Partly Cloudy
4:53 PM 82.0 °F 81.2 °F 53.1 °F 37% 30.04 in 10.0 mi WNW 5.8 mph - N/A   Clear
5:53 PM 81.0 °F 80.4 °F 53.1 °F 38% 30.04 in 10.0 mi West 3.5 mph - N/A   Clear
6:53 PM 81.0 °F 80.5 °F 54.0 °F 39% 30.04 in 10.0 mi Calm Calm - N/A   Clear
7:53 PM 80.1 °F 80.0 °F 54.0 °F 40% 30.04 in 10.0 mi Calm Calm - N/A   Mostly Cloudy
8:53 PM 75.9 °F - 55.0 °F 48% 30.06 in 10.0 mi Calm Calm - N/A   Clear
9:53 PM 75.0 °F - 55.0 °F 50% 30.08 in 10.0 mi WSW 3.5 mph - N/A   Clear
10:53 PM 73.9 °F - 55.0 °F 52% 30.09 in 10.0 mi Calm Calm - N/A   Clear
11:53 PM 72.0 °F - 55.9 °F 57% 30.09 in 10.0 mi Calm Calm - N/A   Clear